This demonstration page uses our WeatherBlox Daily Observations layout. Learn more.

Left ArrowRight Arrow

Hourly Observations for May 16, 2019

Temp ( °F °C ) Dew Point ( °F °C ) Humidity (%) Winds ( mph kmh ) Pressure ( in mb ) Visibility ( mi km ) Precip ( " mm )
12:15 am 00:15 Clear 57 14 55 13 94 94 S 6 9 29.99 1015 10 16.0934 N/A
12:35 am 00:35 Clear 57 14 55 13 94 94 S 6 9 29.99 1015 10 16.0934 N/A
12:56 am 00:56 Clear 55 13 55 13 100 100 S 5 7 29.98 1015 10 16.0934 N/A
1:15 am 01:15 Clear 55 13 55 13 100 100 SSW 6 9 29.98 1015 10 16.0934 N/A
1:35 am 01:35 Clear 55 13 55 13 100 100 SSW 7 11 29.98 1015 10 16.0934 N/A
1:55 am 01:55 Clear 55 13 55 13 100 100 SSW 7 11 29.98 1015 10 16.0934 N/A
2:15 am 02:15 Clear 55 13 55 13 100 100 SW 8 13 29.99 1016 10 16.0934 N/A
2:36 am 02:36 Clear 55 13 55 13 100 100 SW 7 11 29.99 1016 10 16.0934 N/A
2:55 am 02:55 Clear 55 13 55 13 100 100 SW 5 7 29.98 1015 10 16.0934 N/A
3:15 am 03:15 Clear 55 13 55 13 100 100 SW 3 6 29.98 1015 10 16.0934 N/A
3:35 am 03:35 Clear 54 12 54 12 100 100 SW 6 9 29.98 1015 10 16.0934 N/A
3:55 am 03:55 Clear 55 13 55 13 100 100 WSW 6 9 29.98 1015 10 16.0934 N/A
4:15 am 04:15 Clear 55 13 55 13 100 100 SW 3 6 29.98 1015 7 11.26538 N/A
4:35 am 04:35 Clear 54 12 54 12 100 100 SW 5 7 29.98 1015 5 8.0467 N/A
4:56 am 04:56 Clear 54 12 54 12 100 100 SW 3 6 29.99 1016 5 8.0467 N/A
5:15 am 05:15 Clear 54 12 54 12 100 100 SW 6 9 29.99 1016 5 8.0467 N/A
5:35 am 05:35 Clear 54 12 54 12 100 100 SSW 3 6 29.99 1016 4 6.43736 N/A
5:55 am 05:55 Clear 54 12 54 12 100 100 N N/A 29.99 1016 3 4.82802 N/A
6:15 am 06:15 Clear 52 11 52 11 100 100 S 3 6 30 1016 2.5 4.02335 N/A
6:35 am 06:35 Mostly Cloudy 52 11 52 11 100 100 S 3 6 30 1016 1 1.60934 N/A
6:55 am 06:55 Mostly Cloudy 54 12 54 12 100 100 N N/A 29.99 1016 0.75 1.207005 N/A
7:15 am 07:15 Mostly Cloudy 52 11 52 11 100 100 N N/A 30 1016 0.75 1.207005 N/A
7:35 am 07:35 Mostly Cloudy 54 12 54 12 100 100 N N/A 30 1016 1.25 2.011675 N/A
7:56 am 07:56 Mostly Cloudy 55 13 55 13 100 100 SSW 3 6 30 1016 1.5 2.41401 N/A
8:15 am 08:15 Cloudy 55 13 55 13 100 100 SSW 5 7 30 1016 0.5 0.80467 N/A
8:35 am 08:35 Cloudy 57 14 57 14 100 100 SSW 5 7 30.01 1016 0.5 0.80467 N/A
8:55 am 08:55 Cloudy 57 14 57 14 100 100 S 7 11 29.99 1015 1.25 2.011675 N/A
9:15 am 09:15 Mostly Cloudy 59 15 59 15 100 100 S 8 13 29.97 1015 2 3.21868 N/A
9:35 am 09:35 Sunny 61 16 61 16 100 100 SSW 7 11 29.98 1015 3 4.82802 N/A
9:55 am 09:55 Sunny 63 17 63 17 100 100 SSW 8 13 29.98 1015 5 8.0467 N/A
10:16 am 10:16 Sunny 64 18 63 17 94 94 SSW 8 13 29.96 1015 7 11.26538 N/A
10:35 am 10:35 Sunny 66 19 63 17 88 88 SSW 8 13 29.96 1015 10 16.0934 N/A
10:55 am 10:55 Sunny 68 20 64 18 88 88 SSW 9 15 29.95 1014 10 16.0934 N/A
11:15 am 11:15 Sunny 70 21 63 17 78 78 SSW 9 15 29.94 1014 10 16.0934 N/A
11:35 am 11:35 Sunny 70 21 63 17 78 78 SSW 9 15 29.94 1014 10 16.0934 N/A
11:55 am 11:55 Sunny 72 22 61 16 69 69 SSW 15 24 29.93 1014 10 16.0934 N/A
12:15 pm 12:15 Sunny 72 22 63 17 73 73 SSW 14 22 29.93 1014 10 16.0934 N/A
12:35 pm 12:35 Sunny 73 23 61 16 65 65 SSW 15 24 29.93 1014 10 16.0934 N/A
12:55 pm 12:55 Sunny 73 23 61 16 65 65 SW 15 24 29.92 1013 10 16.0934 N/A
1:15 pm 13:15 Sunny 73 23 61 16 65 65 SSW 16 26 29.91 1013 10 16.0934 N/A
1:35 pm 13:35 Sunny 73 23 61 16 65 65 S 16 26 29.9 1012 10 16.0934 N/A
1:55 pm 13:55 Sunny 75 24 63 17 65 65 SSW 14 22 29.89 1012 10 16.0934 N/A
2:15 pm 14:15 Sunny 75 24 63 17 65 65 SSW 14 22 29.87 1011 10 16.0934 N/A
2:35 pm 14:35 Sunny 75 24 63 17 65 65 SW 13 20 29.86 1011 10 16.0934 N/A
2:55 pm 14:55 Sunny 77 25 63 17 61 61 SW 15 24 29.85 1011 10 16.0934 N/A
3:16 pm 15:16 Sunny 77 25 63 17 61 61 SSW 13 20 29.86 1011 10 16.0934 N/A
3:35 pm 15:35 Sunny 77 25 63 17 61 61 SSW 9 15 29.85 1011 10 16.0934 N/A
3:55 pm 15:55 Sunny 77 25 64 18 65 65 SW 14 22 29.83 1010 10 16.0934 N/A
4:15 pm 16:15 Sunny 75 24 64 18 69 69 SSW 12 19 29.83 1010 10 16.0934 N/A
4:35 pm 16:35 Sunny 75 24 64 18 69 69 SSW 13 20 29.83 1010 10 16.0934 N/A
4:55 pm 16:55 Sunny 73 23 64 18 74 74 SSW 9 15 29.83 1010 10 16.0934 N/A
5:15 pm 17:15 Partly Cloudy 73 23 64 18 74 74 SSW 7 11 29.83 1010 10 16.0934 N/A
5:35 pm 17:35 Mostly Cloudy 68 20 66 19 94 94 SSW 5 7 29.84 1010 2.5 4.02335 N/A
5:55 pm 17:55 undefined 61 16 61 16 100 100 N 22 35 29.94 1014 N/A N/A
6:15 pm 18:15 Cloudy 59 15 59 15 100 100 ESE 15 24 29.85 1011 7 11.26538 N/A
6:35 pm 18:35 Cloudy 61 16 61 16 100 100 SSE 7 11 29.85 1011 10 16.0934 N/A
6:55 pm 18:55 Cloudy 61 16 61 16 100 100 S 9 15 29.83 1010 10 16.0934 N/A
7:15 pm 19:15 Mostly Cloudy 61 16 61 16 100 100 S 8 13 29.83 1010 10 16.0934 N/A
7:35 pm 19:35 Partly Cloudy 61 16 61 16 100 100 SSE 7 11 29.84 1011 10 16.0934 N/A
7:55 pm 19:55 Mostly Cloudy 61 16 61 16 100 100 SSE 8 13 29.83 1010 10 16.0934 N/A
8:15 pm 20:15 Partly Cloudy 61 16 61 16 100 100 SSE 8 13 29.82 1010 10 16.0934 N/A
8:35 pm 20:35 Sunny 61 16 61 16 100 100 S 8 13 29.82 1010 10 16.0934 N/A
8:55 pm 20:55 Clear 61 16 61 16 100 100 S 9 15 29.81 1010 10 16.0934 N/A
9:15 pm 21:15 Clear 61 16 61 16 100 100 S 9 15 29.81 1010 10 16.0934 N/A
9:35 pm 21:35 Clear 61 16 61 16 100 100 S 12 19 29.81 1010 10 16.0934 N/A
9:56 pm 21:56 Partly Cloudy 61 16 61 16 100 100 S 10 17 29.8 1009 10 16.0934 N/A
10:15 pm 22:15 Clear 63 17 63 17 100 100 S 9 15 29.8 1009 10 16.0934 N/A
10:35 pm 22:35 Clear 63 17 63 17 100 100 S 9 15 29.8 1009 10 16.0934 N/A
10:55 pm 22:55 Clear 63 17 63 17 100 100 S 9 15 29.8 1009 10 16.0934 N/A
11:15 pm 23:15 Clear 63 17 63 17 100 100 SSE 10 17 29.79 1009 10 16.0934 N/A
11:35 pm 23:35 Clear 63 17 63 17 100 100 SSW 13 20 29.78 1008 10 16.0934 N/A
11:55 pm 23:55 Clear 63 17 63 17 100 100 S 12 19 29.76 1008 10 16.0934 N/A

Powered by AerisWeather